Location: Asheville, NC
(35.6000°N, 82.5500°W)
Time: 02:29:38

Envisat - Pass Details

Date: 15 March 2018
Orbit: 764 x 766 km, 98.2° (Epoch: 16 March)

Event Time Altitude Azimuth Distance (km) Brightness Sun altitude
Rises 21:14:16 0° 174° (S) 3,212 6.0 -20.3°
Reaches altitude 10° 21:16:35 10° 178° (S) 2,290 5.3 -20.7°
Maximum altitude 21:21:35 63° 259° (W) 852 3.4 -21.7°
Drops below altitude 10° 21:26:37 10° 340° (NNW) 2,304 5.9 -22.7°
Sets 21:28:57 0° 344° (NNW) 3,233 6.7 -23.2°
